Overview Statistics Trail Chart Weather Telemetry Raw packets
 

This is the latest recevied weather packets stored in our database for station/object IW1CBG-3. If no packets are shown the sender has not sent any weather packets the latest 10 day(s).

<< 21 22 23 24 25 26 27 >>
Time Temp. Humidity Pressure Rain* Wind** Luminosity Snow
1788348376 25.56° C 72% 1028.3 hPa 0 mm - - -
1788347775 25.56° C 72% 1028 hPa 0 mm - - -
1788347176 25° C 73% 1028.4 hPa 0 mm - - -
1788346576 25.56° C 72% 1028.3 hPa 0 mm - - -
1788345976 25° C 72% 1028.7 hPa 0 mm - - -
1788345376 24.44° C 72% 1028.7 hPa 0 mm - - -
1788344776 24.44° C 72% 1029.1 hPa 0 mm - - -
1788344177 23.89° C 66% 1029.3 hPa 0 mm - - -
1788343577 25° C 67% 1028.7 hPa 0 mm - - -
1788342977 25° C 63% 1028.9 hPa 0 mm - - -
1788342378 25.56° C 59% 1028.7 hPa 0 mm - - -
1788341777 24.44° C 65% 1029 hPa 0 mm - - -
1788341177 23.89° C 64% 1029.3 hPa 0 mm - - -
1788340576 23.33° C 67% 1029.5 hPa 0 mm - - -
1788339992 23.89° C 63% 1029.5 hPa 0 mm - - -
1788339377 22.78° C 66% 1029.8 hPa 0 mm - - -
1788338777 23.33° C 65% 1029.9 hPa 0 mm - - -
1788338177 22.22° C 67% 1029.9 hPa 0 mm - - -
1788337576 22.22° C 67% 1029.9 hPa 0 mm - - -
1788336982 21.67° C 68% 1030.1 hPa 0 mm - - -
1788336377 21.11° C 69% 1030.2 hPa 0 mm - - -
1788335777 20.56° C 72% 1030.2 hPa 0 mm - - -
1788335177 19.44° C 75% 1030.7 hPa 0 mm - - -
1788334577 18.89° C 77% 1030.8 hPa 0 mm - - -
1788333977 18.89° C 78% 1031 hPa 0 mm - - -

* Rain latest hour (hover to see other rain measurements)
** Current wind speed in m/s (hover to see current wind gust speed)